[{"OBJECT_NAME":"APRIZESAT 2","OBJECT_ID":"2004-025A","EPOCH":"2026-09-12T06:12:28.905696","MEAN_MOTION":14.38066565,"ECCENTRICITY":0.01052273,"INCLINATION":98.1122,"RA_OF_ASC_NODE":56.359,"ARG_OF_PERICENTER":347.9745,"MEAN_ANOMALY":11.8933,"EPHEMERIS_TYPE":0,"CLASSIFICATION_TYPE":"U","NORAD_CAT_ID":28366,"ELEMENT_SET_NO":999,"REV_AT_EPOCH":16415,"BSTAR":0.000031292565,"MEAN_MOTION_DOT":5.8e-7,"MEAN_MOTION_DDOT":0},{"OBJECT_NAME":"SAUDICOMSAT 1","OBJECT_ID":"2004-025D","EPOCH":"2026-09-12T06:05:22.090560","MEAN_MOTION":14.55524474,"ECCENTRICITY":0.00332217,"INCLINATION":98.5792,"RA_OF_ASC_NODE":267.7464,"ARG_OF_PERICENTER":115.892,"MEAN_ANOMALY":244.5708,"EPHEMERIS_TYPE":0,"CLASSIFICATION_TYPE":"U","NORAD_CAT_ID":28369,"ELEMENT_SET_NO":999,"REV_AT_EPOCH":17679,"BSTAR":0.000058067096,"MEAN_MOTION_DOT":0.00000205,"MEAN_MOTION_DDOT":0},{"OBJECT_NAME":"SAUDICOMSAT 2","OBJECT_ID":"2004-025E","EPOCH":"2026-09-12T06:41:54.172608","MEAN_MOTION":14.50023268,"ECCENTRICITY":0.00554821,"INCLINATION":98.6651,"RA_OF_ASC_NODE":269.9913,"ARG_OF_PERICENTER":356.9997,"MEAN_ANOMALY":3.0856,"EPHEMERIS_TYPE":0,"CLASSIFICATION_TYPE":"U","NORAD_CAT_ID":28370,"ELEMENT_SET_NO":999,"REV_AT_EPOCH":17272,"BSTAR":0.000056487785,"MEAN_MOTION_DOT":0.00000173,"MEAN_MOTION_DDOT":0},{"OBJECT_NAME":"APRIZESAT 1","OBJECT_ID":"2004-025G","EPOCH":"2026-09-12T06:31:24.045312","MEAN_MOTION":14.51816834,"ECCENTRICITY":0.00434054,"INCLINATION":98.6322,"RA_OF_ASC_NODE":268.3779,"ARG_OF_PERICENTER":249.9361,"MEAN_ANOMALY":109.7159,"EPHEMERIS_TYPE":0,"CLASSIFICATION_TYPE":"U","NORAD_CAT_ID":28372,"ELEMENT_SET_NO":999,"REV_AT_EPOCH":17454,"BSTAR":0.000039766643,"MEAN_MOTION_DOT":0.00000112,"MEAN_MOTION_DDOT":0},{"OBJECT_NAME":"NANOSAT-1","OBJECT_ID":"2004-049B","EPOCH":"2026-09-12T02:23:29.877504","MEAN_MOTION":14.80304213,"ECCENTRICITY":0.00044535,"INCLINATION":98.2403,"RA_OF_ASC_NODE":33.9557,"ARG_OF_PERICENTER":30.2718,"MEAN_ANOMALY":329.875,"EPHEMERIS_TYPE":0,"CLASSIFICATION_TYPE":"U","NORAD_CAT_ID":28493,"ELEMENT_SET_NO":999,"REV_AT_EPOCH":16830,"BSTAR":0.000097057508,"MEAN_MOTION_DOT":0.00000684,"MEAN_MOTION_DDOT":0},{"OBJECT_NAME":"SAUDICOMSAT 7","OBJECT_ID":"2007-012C","EPOCH":"2026-09-11T22:07:26.582880","MEAN_MOTION":14.66197776,"ECCENTRICITY":0.00543361,"INCLINATION":98.3887,"RA_OF_ASC_NODE":230.8776,"ARG_OF_PERICENTER":285.1796,"MEAN_ANOMALY":74.3401,"EPHEMERIS_TYPE":0,"CLASSIFICATION_TYPE":"U","NORAD_CAT_ID":31119,"ELEMENT_SET_NO":999,"REV_AT_EPOCH":3514,"BSTAR":0.000074296381,"MEAN_MOTION_DOT":0.00000363,"MEAN_MOTION_DDOT":0},{"OBJECT_NAME":"SAUDICOMSAT 6","OBJECT_ID":"2007-012E","EPOCH":"2026-09-12T04:17:52.512000","MEAN_MOTION":14.62628284,"ECCENTRICITY":0.00727912,"INCLINATION":98.4207,"RA_OF_ASC_NODE":224.3612,"ARG_OF_PERICENTER":56.5543,"MEAN_ANOMALY":304.2591,"EPHEMERIS_TYPE":0,"CLASSIFICATION_TYPE":"U","NORAD_CAT_ID":31121,"ELEMENT_SET_NO":999,"REV_AT_EPOCH":3290,"BSTAR":0.000086986166,"MEAN_MOTION_DOT":0.00000406,"MEAN_MOTION_DDOT":0},{"OBJECT_NAME":"SAUDICOMSAT 5","OBJECT_ID":"2007-012H","EPOCH":"2026-09-12T04:23:17.861568","MEAN_MOTION":14.68253253,"ECCENTRICITY":0.0046539,"INCLINATION":98.3598,"RA_OF_ASC_NODE":231.8762,"ARG_OF_PERICENTER":210.6104,"MEAN_ANOMALY":149.2384,"EPHEMERIS_TYPE":0,"CLASSIFICATION_TYPE":"U","NORAD_CAT_ID":31124,"ELEMENT_SET_NO":999,"REV_AT_EPOCH":3636,"BSTAR":0.000071655609,"MEAN_MOTION_DOT":0.00000365,"MEAN_MOTION_DDOT":0},{"OBJECT_NAME":"SAUDICOMSAT 3","OBJECT_ID":"2007-012J","EPOCH":"2026-09-11T22:11:13.289568","MEAN_MOTION":14.70813454,"ECCENTRICITY":0.00398931,"INCLINATION":98.3251,"RA_OF_ASC_NODE":232.1536,"ARG_OF_PERICENTER":136.2763,"MEAN_ANOMALY":224.1614,"EPHEMERIS_TYPE":0,"CLASSIFICATION_TYPE":"U","NORAD_CAT_ID":31125,"ELEMENT_SET_NO":999,"REV_AT_EPOCH":3757,"BSTAR":0.000082880254,"MEAN_MOTION_DOT":0.00000458,"MEAN_MOTION_DDOT":0},{"OBJECT_NAME":"SAUDICOMSAT 4","OBJECT_ID":"2007-012L","EPOCH":"2026-09-11T22:08:00.738528","MEAN_MOTION":14.64591046,"ECCENTRICITY":0.0063113,"INCLINATION":98.4093,"RA_OF_ASC_NODE":229.3075,"ARG_OF_PERICENTER":348.6856,"MEAN_ANOMALY":11.2923,"EPHEMERIS_TYPE":0,"CLASSIFICATION_TYPE":"U","NORAD_CAT_ID":31127,"ELEMENT_SET_NO":999,"REV_AT_EPOCH":3398,"BSTAR":0.000093222382,"MEAN_MOTION_DOT":0.00000455,"MEAN_MOTION_DDOT":0},{"OBJECT_NAME":"APRIZESAT 4","OBJECT_ID":"2009-041D","EPOCH":"2026-09-12T04:10:02.574624","MEAN_MOTION":14.83986662,"ECCENTRICITY":0.00440403,"INCLINATION":98.135,"RA_OF_ASC_NODE":332.2012,"ARG_OF_PERICENTER":40.8709,"MEAN_ANOMALY":319.5793,"EPHEMERIS_TYPE":0,"CLASSIFICATION_TYPE":"U","NORAD_CAT_ID":35684,"ELEMENT_SET_NO":999,"REV_AT_EPOCH":92426,"BSTAR":0.00005960576,"MEAN_MOTION_DOT":0.00000445,"MEAN_MOTION_DDOT":0},{"OBJECT_NAME":"APRIZESAT 3","OBJECT_ID":"2009-041F","EPOCH":"2026-09-12T00:44:15.960192","MEAN_MOTION":14.9644458,"ECCENTRICITY":0.00620614,"INCLINATION":98.2178,"RA_OF_ASC_NODE":52.4925,"ARG_OF_PERICENTER":139.6292,"MEAN_ANOMALY":220.9559,"EPHEMERIS_TYPE":0,"CLASSIFICATION_TYPE":"U","NORAD_CAT_ID":35686,"ELEMENT_SET_NO":999,"REV_AT_EPOCH":92936,"BSTAR":0.000084057226,"MEAN_MOTION_DOT":0.00000922,"MEAN_MOTION_DDOT":0},{"OBJECT_NAME":"S-NET D","OBJECT_ID":"2018-014G","EPOCH":"2026-09-11T17:42:24.757056","MEAN_MOTION":15.17355487,"ECCENTRICITY":0.0009886,"INCLINATION":97.526,"RA_OF_ASC_NODE":158.9828,"ARG_OF_PERICENTER":80.4562,"MEAN_ANOMALY":279.7788,"EPHEMERIS_TYPE":0,"CLASSIFICATION_TYPE":"U","NORAD_CAT_ID":43186,"ELEMENT_SET_NO":999,"REV_AT_EPOCH":47188,"BSTAR":0.00018854,"MEAN_MOTION_DOT":0.00003699,"MEAN_MOTION_DDOT":0},{"OBJECT_NAME":"S-NET B","OBJECT_ID":"2018-014H","EPOCH":"2026-09-12T03:31:13.472544","MEAN_MOTION":15.17325725,"ECCENTRICITY":0.00104311,"INCLINATION":97.5264,"RA_OF_ASC_NODE":159.3779,"ARG_OF_PERICENTER":75.2351,"MEAN_ANOMALY":285.0038,"EPHEMERIS_TYPE":0,"CLASSIFICATION_TYPE":"U","NORAD_CAT_ID":43187,"ELEMENT_SET_NO":999,"REV_AT_EPOCH":47194,"BSTAR":0.00018983382,"MEAN_MOTION_DOT":0.00003722,"MEAN_MOTION_DDOT":0},{"OBJECT_NAME":"S-NET A","OBJECT_ID":"2018-014J","EPOCH":"2026-09-11T14:30:11.496672","MEAN_MOTION":15.17363167,"ECCENTRICITY":0.00103565,"INCLINATION":97.5276,"RA_OF_ASC_NODE":159.0647,"ARG_OF_PERICENTER":77.4729,"MEAN_ANOMALY":282.7662,"EPHEMERIS_TYPE":0,"CLASSIFICATION_TYPE":"U","NORAD_CAT_ID":43188,"ELEMENT_SET_NO":999,"REV_AT_EPOCH":47186,"BSTAR":0.00019155391,"MEAN_MOTION_DOT":0.00003761,"MEAN_MOTION_DDOT":0},{"OBJECT_NAME":"S-NET C","OBJECT_ID":"2018-014K","EPOCH":"2026-09-11T16:32:49.007904","MEAN_MOTION":15.17312752,"ECCENTRICITY":0.00116149,"INCLINATION":97.5291,"RA_OF_ASC_NODE":159.237,"ARG_OF_PERICENTER":70.5531,"MEAN_ANOMALY":289.6956,"EPHEMERIS_TYPE":0,"CLASSIFICATION_TYPE":"U","NORAD_CAT_ID":43189,"ELEMENT_SET_NO":999,"REV_AT_EPOCH":47042,"BSTAR":0.00019784511,"MEAN_MOTION_DOT":0.00003882,"MEAN_MOTION_DDOT":0},{"OBJECT_NAME":"SALSAT","OBJECT_ID":"2020-068K","EPOCH":"2026-09-11T23:28:21.147456","MEAN_MOTION":15.30885844,"ECCENTRICITY":0.00094697,"INCLINATION":97.888,"RA_OF_ASC_NODE":263.4175,"ARG_OF_PERICENTER":9.1845,"MEAN_ANOMALY":350.9566,"EPHEMERIS_TYPE":0,"CLASSIFICATION_TYPE":"U","NORAD_CAT_ID":46495,"ELEMENT_SET_NO":999,"REV_AT_EPOCH":32863,"BSTAR":0.00020261281,"MEAN_MOTION_DOT":0.00005968,"MEAN_MOTION_DDOT":0},{"OBJECT_NAME":"OOV-CUBE (TUBSAT-30)","OBJECT_ID":"2024-128F","EPOCH":"2026-09-12T01:54:09.755712","MEAN_MOTION":15.03087611,"ECCENTRICITY":0.00324263,"INCLINATION":61.9933,"RA_OF_ASC_NODE":282.5109,"ARG_OF_PERICENTER":153.9439,"MEAN_ANOMALY":206.3293,"EPHEMERIS_TYPE":0,"CLASSIFICATION_TYPE":"U","NORAD_CAT_ID":60240,"ELEMENT_SET_NO":999,"REV_AT_EPOCH":11917,"BSTAR":0.00009736169,"MEAN_MOTION_DOT":0.0000112,"MEAN_MOTION_DDOT":0},{"OBJECT_NAME":"LPNTSAT-001 (IOD-1)","OBJECT_ID":"2026-065A","EPOCH":"2026-09-12T02:42:48.504960","MEAN_MOTION":15.18901366,"ECCENTRICITY":0.00179174,"INCLINATION":97.3868,"RA_OF_ASC_NODE":133.7386,"ARG_OF_PERICENTER":63.7198,"MEAN_ANOMALY":296.5875,"EPHEMERIS_TYPE":0,"CLASSIFICATION_TYPE":"U","NORAD_CAT_ID":68408,"ELEMENT_SET_NO":999,"REV_AT_EPOCH":2545,"BSTAR":0.00009806508,"MEAN_MOTION_DOT":0.00001986,"MEAN_MOTION_DDOT":0},{"OBJECT_NAME":"CHUANG XIN 26 (CX-26)","OBJECT_ID":"2026-158A","EPOCH":"2026-09-11T14:36:27.428256","MEAN_MOTION":14.25129358,"ECCENTRICITY":0.00051877,"INCLINATION":49.9848,"RA_OF_ASC_NODE":33.8907,"ARG_OF_PERICENTER":148.4258,"MEAN_ANOMALY":211.6968,"EPHEMERIS_TYPE":0,"CLASSIFICATION_TYPE":"U","NORAD_CAT_ID":69972,"ELEMENT_SET_NO":999,"REV_AT_EPOCH":903,"BSTAR":-0.000010642632,"MEAN_MOTION_DOT":-0.00000185,"MEAN_MOTION_DDOT":0}]